Torna al catalogo

STARLINK-11576

AttivoComunicazioniVLEO
NORAD 62993·PAYLOAD·🇺🇸 United States

Lanciato Feb 11, 2025 da Cape Canaveral Space Force Station

Loading…

Prossimi Passaggi (prossime 24 ore)

TLE

AggiornatoSource: CelesTrak SupGP

Epoca: Sep 14, 2026, 22:42 UTC

1 62993C 25031N   26257.94631944 -.00039483  00000+0 -30672-3 0  2578
2 62993  43.0003 300.7791 0001636 261.6907 199.1126 15.70853540    13

Traccia STARLINK-11576 in tempo reale con AllMySat

Download on the App Store